Location: Mahannah Oil Field
(37.4664°N, 96.6003°W)
Time: 03:39:48
(UTC+00:00)

A-11 Canister half - Pass Details

Date: 26 January 2021
Orbit: 1525 x 1684 km, 47.3° (Epoch: 02 March)

Event Time Altitude Azimuth Distance (km) Brightness Sun altitude
Rises 02:11:24 0° 301° (WNW) 4,751 12.4 -29.3°
Reaches altitude 10° 02:14:26 10° 302° (WNW) 3,785 11.7 -30.0°
Maximum altitude 02:24:08 85° 31° (NNE) 1,629 8.9 -31.9°
Enters shadow 02:25:57 65° 111° (ESE) 1,758 8.9 -32.2°
Drops below altitude 10° 02:34:10 10° 121° (ESE) 3,900 - -33.9°
Sets 02:37:20 0° 122° (ESE) 4,901 - -34.5°
